IW1EYZ-3 Weather Reports


time (UTC)temp
C
wind
direction
speed
KPH
gust
KPH
rain 1hr
cm
rain 24hr
cm
rain mn
cm
humidity
%
barometer
mb
20260506203426 17 0.0 0.0 0.00 0.00 0.00 62 1013.3
20260506201426 17 0.0 0.0 0.00 0.00 0.00 62 1013.3
20260506195425 17 0.0 0.0 0.00 0.00 0.00 63 1013.0
20260506193425 17 0.0 0.0 0.00 0.00 0.00 63 1012.7
20260506191425 16 0.0 0.0 0.00 0.00 0.00 62 1012.5
20260506185424 17 0.0 0.0 0.00 0.00 0.00 63 1012.1
20260506183424 17 0.0 0.0 0.00 0.00 0.00 67 1012.0
20260506181424 17 0.0 0.0 0.00 0.00 0.00 68 1011.8
20260506175423 17 0.0 0.0 0.00 0.00 0.00 66 1011.5
20260506173423 17 0.0 0.0 0.00 0.00 0.00 66 1011.5
20260506171423 17 0.0 0.0 0.00 0.00 0.00 63 1011.4
20260506165423 18 0.0 0.0 0.00 0.00 0.00 59 1011.4
20260506163422 19 0.0 0.0 0.00 0.00 0.00 55 1011.4
20260506161422 23 0.0 0.0 0.00 0.00 0.00 43 1011.2
20260506155421 21 0.0 0.0 0.00 0.00 0.00 50 1011.2
20260506153421 26 0.0 0.0 0.00 0.00 0.00 38 1010.9
20260506151421 24 0.0 0.0 0.00 0.00 0.00 46 1011.1
20260506145421 26 0.0 0.0 0.00 0.00 0.00 39 1011.1
20260506143420 27 0.0 0.0 0.00 0.00 0.00 36 1011.0
20260506141420 27 0.0 0.0 0.00 0.00 0.00 38 1011.0
20260506135420 24 0.0 0.0 0.00 0.00 0.00 43 1011.3
20260506133419 25 0.0 0.0 0.00 0.00 0.00 40 1011.3
20260506131419 22 0.0 0.0 0.00 0.00 0.00 48 1011.5
20260506125419 21 0.0 0.0 0.00 0.00 0.00 55 1011.3
20260506123418 26 0.0 0.0 0.00 0.00 0.00 44 1011.2
20260506121418 21 0.0 0.0 0.00 0.00 0.00 54 1011.1
20260506115418 22 0.0 0.0 0.00 0.00 0.00 56 1011.1
20260506113417 21 0.0 0.0 0.00 0.00 0.00 57 1011.1
20260506111417 21 0.0 0.0 0.00 0.00 0.00 58 1011.0
20260506105417 21 0.0 0.0 0.00 0.00 0.00 58 1011.1
20260506103416 21 0.0 0.0 0.00 0.00 0.00 56 1011.0
20260506101416 19 0.0 0.0 0.00 0.00 0.00 65 1011.0
20260506095416 18 0.0 0.0 0.00 0.00 0.00 70 1011.0
20260506093416 19 0.0 0.0 0.00 0.00 0.00 65 1011.0
20260506091415 20 0.0 0.0 0.00 0.00 0.00 64 1010.8
20260506085415 17 0.0 0.0 0.00 0.00 0.00 71 1010.5
20260506083414 17 0.0 0.0 0.00 0.00 0.00 72 1010.4
20260506081414 17 0.0 0.0 0.00 0.00 0.00 78 1010.3
20260506073414 17 0.0 0.0 0.00 0.00 0.00 83 1010.2
20260506071413 17 0.0 0.0 0.00 0.00 0.00 83 1010.0
20260506061412 16 0.0 0.0 0.00 0.00 0.00 83 1009.4
20260506051411 15 0.0 0.0 0.00 0.00 0.00 80 1009.5
20260506043411 15 0.0 0.0 0.00 0.00 0.00 81 1009.5
20260506041410 14 0.0 0.0 0.00 0.00 0.00 82 1009.9
20260506035410 15 0.0 0.0 0.00 0.00 0.00 80 1010.0
20260506033410 14 0.0 0.0 0.00 0.00 0.00 77 1009.9
20260506031409 14 0.0 0.0 0.00 0.00 0.00 81 1009.8
20260506025409 14 0.0 0.0 0.00 0.00 0.00 83 1010.1
20260506023409 14 0.0 0.0 0.00 0.00 0.00 79 1010.8
20260506021408 14 0.0 0.0 0.00 0.00 0.00 80 1011.0
20260506015408 14 0.0 0.0 0.00 0.00 0.00 91 1010.9
20260506013408 15 0.0 0.0 0.00 0.00 0.00 87 1011.7
20260506011407 15 0.0 0.0 0.00 0.00 0.00 82 1011.5
20260506005407 16 0.0 0.0 0.00 0.00 0.00 83 1011.2
20260506003407 15 0.0 0.0 0.00 0.00 0.00 79 1011.7
20260506001406 16 0.0 0.0 0.00 0.00 0.00 76 1011.4
20260505235406 16 0.0 0.0 0.00 0.00 0.00 81 1011.5
20260505233406 16 0.0 0.0 0.00 0.00 0.00 83 1012.1
20260505231405 16 0.0 0.0 0.00 0.00 0.00 86 1012.5
20260505225405 16 0.0 0.0 0.00 0.00 0.00 83 1012.7
20260505223405 16 0.0 0.0 0.00 0.00 0.00 84 1013.0
20260505221404 16 0.0 0.0 0.00 0.00 0.00 78 1013.2
20260505215404 16 0.0 0.0 0.00 0.00 0.00 72 1013.0
20260505213404 16 0.0 0.0 0.00 0.00 0.00 73 1013.3
20260505211403 16 0.0 0.0 0.00 0.00 0.00 74 1013.4
20260505205403 17 0.0 0.0 0.00 0.00 0.00 75 1013.5